Regional Weather Roundup
Issued by NWS

Home | Current Version | Previous Version | Text Only | Print | Product List | Glossary Off
Versions: 1 2 3 4 5 6 7 8 9 10 11 12 13 14 15 16 17 18 19 20 21 22 23 24 25 26 27 28 29 30 31 32 33 34 35 36 37 38 39 40 41 42 43 44 45 46 47 48 49 50

000
ASUS43 KFSD 250810
RWRSD

WEATHER ROUNDUP FOR SOUTH DAKOTA
NATIONAL WEATHER SERVICE SIOUX FALLS SD
300 AM CDT SAT APR 25 2015

NOTE: "FAIR" INDICATES FEW OR NO CLOUDS BELOW 12,000 FEET WITH NO
SIGNIFICANT WEATHER AND/OR OBSTRUCTIONS TO VISIBILITY.


SDZ001>005-009-010-012>017-250900-
NORTHWEST AND NORTH CENTRAL SOUTH DAKOTA

CITY           SKY/WX    TMP DP  RH WIND       PRES   REMARKS
BUFFALO          N/A     44  37  76 E10       29.60R
FAITH            N/A     43  40  89 NE10      29.64R
MOBRIDGE       CLOUDY    47  44  90 E10G20    29.64S
$$

SDZ012>016-024>037-041>051-057-063-072>074-250900-
SOUTHWEST AND SOUTH CENTRAL SOUTH DAKOTA

CITY           SKY/WX    TMP DP  RH WIND       PRES   REMARKS
RAPID CTY ARPT PTCLDY    44  39  82 N8        29.64R
PIERRE         CLOUDY    48  44  86 NE17      29.60R
CUSTER         MOCLDY    35  32  88 W5        29.70R
ELLSWORTH AFB  PTCLDY    42  37  84 W3        29.64R
PHILIP         MOCLDY    49  44  83 NE14      29.61R
PINE RIDGE     PTCLDY    42  40  92 SW5       29.63S
SPEARFISH      FAIR      39  34  81 CALM      29.67S
WINNER         PTSUNNY   55  45  68 S10       29.54F
$$

SDZ004>011-016>023-039-040-250900-
NORTHEAST SOUTH DAKOTA

CITY           SKY/WX    TMP DP  RH WIND       PRES   REMARKS
ABERDEEN       CLOUDY    46  43  89 NE9       29.69R
WATERTOWN      CLOUDY    43  41  93 E14G20    29.66R FOG
BROOKINGS      CLOUDY    46  45  93 E13       29.65R
SISSETON         N/A     43  42  97 SE15      29.72S
$$

SDZ017-020-022-023-036>040-048>070-250900-
SOUTHEAST SOUTH DAKOTA

CITY           SKY/WX    TMP DP  RH WIND       PRES   REMARKS
SIOUX FALLS    CLOUDY    47  45  93 E15       29.62F
HURON          CLOUDY    53  48  83 E8        29.60R
CHAMBERLAIN    CLOUDY    50  47  92 NE9       29.57S
MITCHELL       CLOUDY    50  48  93 E20G28    29.57F
YANKTON        CLOUDY    52  48  87 NE13      29.57F
$$

ABBREVIATIONS USED IN REMARKS
   TC - TEMPERATURE IN CELSIUS
  WCI - WIND CHILL INDEX
   HX - HEAT INDEX
  VSB - VISIBILITY




USA.gov is the U.S. government's official web portal to all federal, state and local government web resources and services.